Time,TemperatureF,DewpointF,PressureIn,WindDirection,WindDirectionDegrees,WindSpeedMPH,WindSpeedGustMPH,Humidity,HourlyPrecipIn,Conditions,Clouds,dailyrainin,SoftwareType,DateUTC
2013-02-27 00:02:00,33.0,19.0,29.51,NE,34,3.0,9.0,55,0.00,,,0.05,,2013-02-27 05:02:00,
2013-02-27 00:32:00,33.0,18.0,29.50,NE,54,3.0,10.0,54,0.00,,,0.05,,2013-02-27 05:32:00,
2013-02-27 01:02:00,33.0,18.0,29.49,East,82,4.0,12.0,54,0.00,,,0.05,,2013-02-27 06:02:00,
2013-02-27 01:33:00,33.0,18.0,29.49,ENE,61,2.0,7.0,54,0.00,,,0.05,,2013-02-27 06:33:00,
2013-02-27 02:01:00,33.0,18.0,29.48,ENE,73,3.0,7.0,54,0.00,,,0.05,,2013-02-27 07:01:00,
2013-02-27 02:32:00,33.0,18.0,29.48,NNE,19,1.0,7.0,54,0.00,,,0.05,,2013-02-27 07:32:00,
2013-02-27 03:01:00,33.0,18.0,29.48,East,83,2.0,6.0,54,0.00,,,0.05,,2013-02-27 08:01:00,
2013-02-27 03:32:00,33.0,18.0,29.47,ENE,78,0.0,7.0,54,0.00,,,0.05,,2013-02-27 08:32:00,
2013-02-27 04:02:00,33.0,18.0,29.47,ENE,73,2.0,6.0,54,0.00,,,0.05,,2013-02-27 09:02:00,
2013-02-27 04:32:00,33.0,18.0,29.46,ENE,60,1.0,3.0,54,0.00,,,0.05,,2013-02-27 09:32:00,
2013-02-27 05:01:00,33.0,18.0,29.46,NE,43,1.0,3.0,54,0.00,,,0.05,,2013-02-27 10:01:00,
2013-02-27 05:32:00,33.0,18.0,29.47,NE,43,0.0,3.0,54,0.00,,,0.05,,2013-02-27 10:32:00,
2013-02-27 06:32:00,33.0,18.0,29.46,NE,51,0.0,5.0,54,0.00,,,0.05,,2013-02-27 11:32:00,
2013-02-27 07:02:00,33.0,18.0,29.47,NE,52,1.0,2.0,54,0.00,,,0.05,,2013-02-27 12:02:00,
2013-02-27 07:13:00,33.0,18.0,29.47,NE,52,1.0,2.0,54,0.00,,,0.05,,2013-02-27 12:13:00,
2013-02-27 07:33:00,33.0,18.0,29.47,ENE,57,0.0,3.0,54,0.00,,,0.05,,2013-02-27 12:33:00,
2013-02-27 08:03:00,33.0,18.0,29.47,NE,48,1.0,3.0,54,0.00,,,0.05,,2013-02-27 13:03:00,
2013-02-27 08:32:00,33.0,18.0,29.48,NE,49,0.0,2.0,54,0.00,,,0.05,,2013-02-27 13:32:00,
2013-02-27 09:02:00,33.0,18.0,29.49,NE,49,0.0,2.0,54,0.00,,,0.05,,2013-02-27 14:02:00,
2013-02-27 09:32:00,33.0,18.0,29.49,NE,49,0.0,1.0,54,0.00,,,0.05,,2013-02-27 14:32:00,
2013-02-27 10:02:00,33.0,18.0,29.50,NE,49,0.0,0.0,54,0.01,,,0.06,,2013-02-27 15:02:00,
2013-02-27 10:32:00,33.0,18.0,29.50,NE,49,0.0,0.0,54,0.02,,,0.07,,2013-02-27 15:32:00,
2013-02-27 11:02:00,33.0,18.0,29.50,NE,49,1.0,3.0,54,0.03,,,0.09,,2013-02-27 16:02:00,
2013-02-27 11:32:00,33.0,18.0,29.50,NNE,28,1.0,3.0,54,0.06,,,0.13,,2013-02-27 16:32:00,
2013-02-27 12:02:00,33.0,18.0,29.51,NE,38,2.0,3.0,54,0.09,,,0.18,,2013-02-27 17:02:00,
2013-02-27 12:11:00,33.0,18.0,29.51,NE,38,2.0,3.0,54,0.09,,,0.18,,2013-02-27 17:11:00,
2013-02-27 12:32:00,33.0,18.0,29.51,ENE,64,0.0,3.0,54,0.09,,,0.22,,2013-02-27 17:32:00,
2013-02-27 13:02:00,33.0,18.0,29.50,East,101,2.0,6.0,54,0.09,,,0.27,,2013-02-27 18:02:00,
2013-02-27 13:32:00,33.0,18.0,29.50,NE,46,1.0,6.0,54,0.08,,,0.30,,2013-02-27 18:32:00,
2013-02-27 14:02:00,33.0,18.0,29.50,NE,42,1.0,3.0,54,0.06,,,0.33,,2013-02-27 19:02:00,
2013-02-27 14:32:00,33.0,18.0,29.50,North,2,3.0,8.0,54,0.06,,,0.36,,2013-02-27 19:32:00,
2013-02-27 15:02:00,33.0,18.0,29.50,NE,46,1.0,3.0,54,0.05,,,0.38,,2013-02-27 20:02:00,
2013-02-27 15:32:00,33.0,18.0,29.51,NNE,30,0.0,1.0,54,0.03,,,0.37,,2013-02-27 20:32:00,
2013-02-27 16:02:00,33.0,18.0,29.52,NE,54,1.0,6.0,54,0.03,,,0.38,,2013-02-27 21:02:00,
2013-02-27 16:32:00,33.0,18.0,29.52,NE,43,1.0,3.0,54,0.04,,,0.39,,2013-02-27 21:32:00,
2013-02-27 17:02:00,33.0,18.0,29.53,NE,54,0.0,1.0,54,0.04,,,0.40,,2013-02-27 22:02:00,
2013-02-27 17:32:00,33.0,18.0,29.53,ENE,57,1.0,3.0,54,0.03,,,0.41,,2013-02-27 22:32:00,
2013-02-27 18:01:00,33.0,18.0,29.54,NE,34,0.0,2.0,54,0.02,,,0.42,,2013-02-27 23:01:00,
2013-02-27 18:32:00,33.0,18.0,29.55,NNW,328,1.0,3.0,54,0.02,,,0.43,,2013-02-27 23:32:00,
2013-02-27 19:02:00,33.0,18.0,29.56,North,355,1.0,3.0,54,0.02,,,0.44,,2013-02-28 00:02:00,
2013-02-27 19:32:00,33.0,18.0,29.57,North,355,2.0,5.0,54,0.01,,,0.44,,2013-02-28 00:32:00,
2013-02-27 20:01:00,33.0,18.0,29.57,North,349,1.0,3.0,54,0.01,,,0.45,,2013-02-28 01:01:00,
2013-02-27 20:32:00,33.0,18.0,29.57,North,357,2.0,5.0,54,0.01,,,0.45,,2013-02-28 01:32:00,
2013-02-27 21:01:00,33.0,18.0,29.57,NNW,348,3.0,6.0,54,0.00,,,0.45,,2013-02-28 02:01:00,
2013-02-27 21:32:00,33.0,18.0,29.57,North,5,2.0,7.0,54,0.01,,,0.46,,2013-02-28 02:32:00,
2013-02-27 21:41:00,33.0,18.0,29.57,North,5,2.0,7.0,54,0.01,,,0.46,,2013-02-28 02:41:00,
2013-02-27 21:52:00,33.0,18.0,29.57,North,5,2.0,7.0,54,0.01,,,0.46,,2013-02-28 02:52:00,
2013-02-27 22:02:00,33.0,18.0,29.56,North,355,3.0,7.0,54,0.01,,,0.46,,2013-02-28 03:02:00,
2013-02-27 22:32:00,33.0,18.0,29.56,NNW,337,2.0,6.0,54,0.00,,,0.46,,2013-02-28 03:32:00,
2013-02-27 23:02:00,33.0,18.0,29.56,NNW,347,3.0,5.0,54,0.00,,,0.46,,2013-02-28 04:02:00,
2013-02-27 23:32:00,33.0,18.0,29.56,NNW,345,3.0,7.0,54,0.01,,,0.47,,2013-02-28 04:32:00,